Location: Belfast
(54.5830°N, 5.9330°W)
Time: 12:40:51
(UTC+01:00)

ISS - Pass Details

Date: 22 May 2018
Orbit: 402 x 407 km, 51.6° (Epoch: 20 May)

Event Time Altitude Azimuth Distance (km) Brightness Sun altitude
Rises 23:33:05 0° 240° (WSW) 2,316 0.0 -11.5°
Reaches altitude 10° 23:35:15 10° 232° (SW) 1,457 -1.1 -11.6°
Maximum altitude 23:38:17 37° 163° (SSE) 652 -3.3 -11.8°
Drops below altitude 10° 23:41:20 10° 95° (E) 1,459 -1.3 -12.0°
Sets 23:43:30 0° 87° (E) 2,320 -0.2 -12.1°
